Wind_Speed
25 26 26 26 25 25 26 27 28 27 27 26 28 29 29 28 28 28 28 28 28 27 27 28 28 29 29 29 29 30 31 30 30 31 32 33 34 34 35 36 36 37 37 37
26 27 27 26 25 25 26 26 27 27 26 26 27 28 28 28 28 27 27 27 27 26 27 26 27 27 27 28 28 29 29 29 29 29 30 31 33 34 35 36 36 36 36 37
26 26 26 24 23 24 24 25 26 27 27 26 27 28 28 28 27 27 26 26 26 26 25 25 25 25 26 27 27 28 28 28 28 29 30 31 32 33 34 35 35 35 35 36
27 26 25 23 23 23 24 24 25 26 26 26 27 27 27 27 27 26 26 27 26 25 25 25 25 26 25 26 26 26 27 26 27 28 29 30 32 32 33 34 34 35 35 34
27 27 26 24 24 25 25 25 25 26 26 26 27 26 25 25 25 26 26 26 25 24 24 25 25 25 25 25 25 25 26 26 26 27 28 29 30 31 32 32 32 33 33 33
26 27 26 25 24 25 26 26 26 27 27 27 27 26 24 25 25 25 25 25 24 23 23 23 24 24 25 24 24 24 25 25 26 26 26 27 28 29 29 30 30 30 30 31
26 26 26 24 24 25 26 26 26 27 27 27 26 25 24 24 24 24 24 24 24 23 23 23 23 24 24 24 24 24 25 25 25 26 26 26 27 27 28 28 29 29 30 30
25 26 25 25 25 25 26 26 26 26 25 25 25 24 24 24 24 23 23 23 23 23 23 23 23 23 24 24 24 24 24 24 25 26 26 26 26 26 27 27 27 28 29 29
24 24 24 24 25 25 26 26 26 25 25 24 24 24 24 23 23 22 22 22 21 21 22 22 23 23 23 23 23 23 23 23 24 24 25 25 25 26 26 26 27 27 28 28
24 23 23 23 23 23 24 25 25 24 24 23 23 22 23 22 22 21 20 20 20 20 20 21 21 21 21 21 22 22 22 23 23 23 24 24 24 24 24 24 25 25 26 26
23 23 22 22 23 23 23 23 23 23 22 22 21 21 21 22 21 21 20 20 20 19 19 19 19 19 19 20 21 21 22 22 22 22 22 22 22 22 22 22 23 23 24 24
23 22 22 22 22 22 22 22 22 21 21 21 21 21 21 20 20 19 19 19 19 19 18 18 18 18 18 19 19 20 20 20 20 20 20 20 20 21 21 22 22 22 23 23
22 22 21 21 21 21 21 21 21 21 20 20 20 20 20 19 18 18 18 18 18 18 18 17 17 17 17 17 18 18 18 18 18 18 19 19 19 19 20 21 21 21 22 22
21 21 21 21 21 21 21 21 21 20 19 19 19 19 19 18 17 16 16 16 16 16 16 15 15 15 16 15 16 17 17 17 17 17 17 17 17 18 18 18 18 18 19 19
21 21 21 21 21 21 20 20 20 19 19 19 18 18 18 17 16 15 14 14 14 14 14 14 14 14 14 14 15 15 15 15 15 15 15 15 15 15 15 16 16 17 17 17
20 20 20 20 20 20 19 19 19 19 18 18 17 17 17 16 15 13 13 13 13 13 13 14 14 13 13 13 14 14 14 14 14 14 14 14 14 14 14 15 15 16 16 16
19 19 19 19 19 18 18 18 17 17 17 16 16 16 16 15 13 13 13 13 12 12 12 12 12 12 13 13 14 14 13 13 13 12 12 12 13 13 14 14 15 15 14 14
19 18 18 17 17 17 16 15 15 15 15 16 16 15 14 14 13 12 12 12 12 12 12 12 12 12 13 13 13 13 12 12 11 12 12 12 12 12 13 13 13 12 12 12
17 16 16 15 15 15 14 14 15 15 15 15 15 14 14 14 13 12 11 12 12 12 13 13 12 12 13 13 12 12 12 12 12 12 12 12 12 11 11 11 11 11 11 11
16 15 15 14 14 14 14 14 15 15 15 15 15 14 14 13 12 12 12 11 12 12 13 12 12 12 12 12 12 12 12 12 12 12 12 12 12 11 11 11 11 11 11 10
16 15 14 14 14 14 15 15 16 16 15 15 14 14 13 12 11 11 11 11 12 12 12 12 12 12 12 13 13 12 12 12 12 12 12 12 11 11 11 10 10 10 10 10
15 14 14 14 14 15 15 15 16 15 14 14 13 12 12 12 11 11 11 11 12 11 11 11 12 12 12 12 13 12 12 11 11 12 12 11 11 11 11 10 10 10 10 10
14 14 14 14 15 16 15 15 14 14 13 12 12 12 12 11 11 11 11 11 12 12 12 13 13 13 13 13 12 12 11 11 11 12 12 12 11 11 10 10 10 10 11 11
14 14 14 14 15 15 15 14 14 13 12 12 12 11 11 11 11 11 11 11 11 12 12 13 14 14 14 13 12 12 12 12 12 12 12 11 11 11 10 10 10 10 10 10
13 13 13 14 14 14 14 14 14 13 13 13 12 12 11 11 11 10 10 10 11 11 12 13 13 13 13 13 12 12 12 13 13 12 12 12 11 11 11 10 10 10 10 10
12 12 12 13 13 13 14 13 14 14 14 13 12 12 11 11 11 11 11 11 11 12 13 13 13 13 13 13 13 13 13 13 13 12 12 12 12 12 11 11 10 10 10 10
11 11 12 12 13 13 13 14 14 14 13 13 12 12 12 11 11 11 11 12 12 12 13 13 13 13 13 13 13 13 13 13 12 12 12 11 12 12 11 11 11 11 11 11
Wind_Direction
296 296 295 295 294 291 289 289 289 289 288 288 288 287 286 285 285 286 286 284 282 279 275 272 268 266 264 264 264 263 262 262 262 261 260 260 260 261 262 262 262 263 263 264
294 294 295 294 292 290 289 289 289 289 288 288 289 288 287 286 286 287 287 286 283 280 276 271 267 265 264 265 266 265 263 261 262 262 262 263 263 264 264 264 264 264 265 266
295 295 295 294 294 292 291 290 289 289 288 288 288 288 288 287 286 286 286 287 285 281 275 271 268 267 266 266 267 266 263 262 264 265 264 264 264 266 266 265 265 266 268 268
295 295 294 297 295 293 293 292 291 291 290 288 288 289 289 287 286 284 285 287 285 281 276 272 269 268 268 268 268 266 264 264 266 267 266 266 266 267 267 266 266 266 267 267
294 295 295 295 296 295 294 292 292 291 291 290 289 288 288 289 287 286 286 286 282 279 276 273 270 269 268 269 269 268 266 266 267 269 268 267 268 268 267 268 267 266 265 266
295 295 296 297 296 296 295 294 293 292 292 292 292 287 286 288 288 287 286 284 280 279 277 275 272 270 269 270 270 270 268 268 269 269 269 268 268 268 268 268 267 266 266 267
294 294 296 297 297 297 296 297 296 294 294 293 292 289 287 288 288 287 286 283 281 281 279 277 274 271 270 271 272 271 270 270 270 269 270 269 269 269 269 268 268 266 267 267
294 295 297 297 297 297 297 298 297 296 295 294 292 290 288 288 289 289 287 284 283 281 280 278 277 274 272 272 272 271 270 271 272 271 270 271 271 271 270 269 268 267 267 268
294 296 297 298 298 298 298 298 297 297 297 296 293 290 288 288 290 289 289 287 284 283 282 281 279 277 275 274 272 272 272 272 273 273 273 272 271 271 270 269 268 268 268 268
292 294 296 297 299 301 301 299 299 298 298 297 296 293 291 290 291 289 289 288 287 285 285 284 282 280 277 276 275 273 272 274 275 274 275 275 273 271 270 268 268 269 269 269
292 295 296 298 300 303 303 302 301 301 301 300 299 297 294 291 291 289 288 287 286 285 286 285 284 283 280 277 276 275 275 276 276 275 273 273 272 270 268 267 268 269 270 269
293 295 297 298 300 302 303 303 304 305 305 303 301 301 298 294 292 288 285 285 284 286 287 287 287 285 282 280 279 279 278 278 276 274 273 272 270 268 267 268 268 270 270 271
293 294 296 297 299 302 303 304 304 305 305 304 303 304 302 298 293 288 285 283 284 286 288 288 289 289 287 284 282 282 281 279 278 277 274 273 270 268 268 268 269 270 271 270
293 295 296 297 298 300 303 305 305 304 303 303 304 305 305 301 297 293 288 286 286 288 289 291 293 292 290 287 285 284 282 280 279 278 275 272 270 268 267 267 267 268 270 269
295 296 296 296 297 298 300 303 304 303 302 303 304 307 307 304 300 295 291 290 290 291 292 294 296 295 294 293 291 288 285 282 279 277 275 272 270 267 267 267 266 268 270 270
296 296 297 297 298 299 300 301 303 303 302 303 304 307 307 305 302 296 292 293 293 296 298 299 299 297 297 298 298 294 288 283 278 278 276 272 268 266 267 267 268 271 271 270
295 297 298 298 299 300 300 301 303 305 305 304 304 305 305 304 302 296 293 293 294 299 304 304 303 301 301 301 301 298 291 284 280 279 277 273 270 268 267 269 271 272 272 272
296 298 300 301 301 301 301 301 303 306 308 308 306 305 303 303 300 296 293 291 293 297 303 305 306 305 304 301 300 297 291 285 281 280 279 276 274 270 269 271 272 271 270 272
296 298 299 302 303 301 300 301 303 304 308 311 311 307 304 303 298 292 290 290 291 296 301 303 304 303 303 302 298 295 291 285 283 281 279 276 274 272 271 271 271 269 270 271
293 296 298 300 301 301 301 301 303 305 307 308 308 307 307 303 295 290 291 291 293 296 300 302 303 303 301 301 300 297 293 287 283 281 279 277 275 272 270 269 268 267 267 269
289 292 295 297 299 301 302 302 303 304 305 306 306 307 308 306 298 291 289 290 294 297 299 300 301 303 302 301 299 297 295 290 284 281 279 277 273 271 269 266 265 265 267 268
284 286 289 293 297 300 302 304 306 306 305 306 306 307 308 304 300 294 290 289 292 295 297 299 302 303 303 303 300 295 292 291 287 281 279 277 274 270 266 264 263 265 266 266
283 285 288 291 295 299 301 303 305 305 304 304 305 308 308 304 299 297 296 293 291 292 295 298 302 303 303 302 299 294 290 289 287 283 280 276 274 272 269 267 266 266 264 263
285 287 291 294 297 298 300 302 304 303 301 301 302 305 305 303 301 299 297 296 297 294 295 299 303 304 304 302 299 295 292 289 287 283 279 275 273 272 271 269 266 264 265 265
283 287 291 295 298 299 301 303 302 300 300 300 300 300 300 300 299 298 298 298 299 300 300 301 301 302 303 300 298 297 295 292 288 282 277 273 271 271 270 268 265 263 265 266
285 289 292 294 296 299 301 303 303 300 298 297 296 297 298 298 298 298 299 300 301 303 305 305 302 301 301 301 300 299 297 295 290 283 276 271 269 270 268 264 264 265 264 264
291 292 294 295 296 298 300 302 302 300 296 294 293 295 297 297 296 298 300 302 304 305 306 306 303 302 302 302 302 300 298 294 289 284 276 270 268 268 265 262 262 263 264 262
Height
5610 5607 5604 5601 5599 5596 5593 5591 5589 5587 5585 5584 5581 5579 5577 5574 5571 5569 5567 5565 5563 5561 5560 5559 5558 5558 5558 5558 5559 5559 5560 5561 5561 5562 5563 5565 5566 5567 5567 5568 5569 5569 5569 5570
5603 5600 5596 5594 5592 5589 5586 5584 5581 5579 5578 5576 5573 5571 5568 5566 5564 5561 5559 5557 5555 5553 5552 5551 5550 5550 5550 5550 5550 5550 5551 5552 5553 5553 5554 5555 5556 5556 5557 5558 5558 5558 5559 5559
5595 5592 5589 5587 5585 5582 5579 5577 5574 5572 5571 5568 5566 5563 5560 5558 5556 5553 5551 5549 5547 5545 5544 5543 5543 5542 5542 5542 5542 5542 5542 5543 5544 5545 5545 5546 5546 5547 5547 5547 5547 5548 5548 5548
5587 5585 5582 5583 5578 5575 5572 5570 5567 5565 5563 5560 5558 5555 5552 5550 5548 5546 5544 5542 5539 5538 5536 5536 5535 5535 5535 5534 5534 5534 5534 5535 5535 5536 5536 5536 5536 5537 5537 5537 5537 5537 5538 5538
5580 5577 5575 5575 5571 5568 5565 5563 5561 5558 5556 5553 5550 5548 5546 5543 5540 5538 5536 5534 5532 5530 5529 5528 5528 5527 5527 5527 5526 5526 5526 5527 5527 5527 5527 5527 5527 5527 5527 5527 5527 5528 5528 5528
5573 5569 5568 5569 5565 5561 5559 5556 5554 5551 5548 5546 5543 5541 5540 5536 5533 5531 5529 5526 5524 5523 5522 5521 5520 5520 5519 5519 5519 5519 5519 5519 5519 5518 5518 5518 5518 5518 5518 5518 5518 5518 5519 5519
5566 5562 5561 5561 5557 5555 5553 5551 5547 5543 5541 5538 5535 5533 5532 5529 5526 5524 5522 5520 5518 5516 5515 5514 5513 5512 5512 5512 5512 5511 5511 5511 5511 5510 5510 5510 5509 5509 5509 5509 5509 5509 5510 5510
5559 5556 5557 5553 5550 5548 5546 5542 5539 5536 5533 5530 5528 5526 5524 5522 5520 5517 5515 5513 5511 5510 5508 5507 5506 5505 5505 5505 5504 5504 5503 5503 5503 5502 5502 5502 5501 5501 5501 5501 5501 5501 5501 5501
5553 5553 5549 5546 5543 5540 5538 5535 5532 5529 5526 5523 5521 5519 5517 5515 5513 5511 5509 5506 5505 5503 5502 5500 5499 5498 5498 5497 5497 5496 5496 5496 5495 5495 5494 5494 5493 5493 5493 5493 5493 5493 5493 5493
5546 5544 5542 5539 5536 5534 5531 5528 5525 5522 5519 5517 5514 5512 5510 5509 5507 5505 5502 5500 5499 5497 5496 5494 5493 5491 5491 5490 5489 5489 5489 5488 5488 5487 5486 5486 5486 5485 5485 5485 5485 5485 5485 5485
5539 5538 5535 5533 5530 5528 5525 5521 5519 5516 5513 5510 5508 5506 5504 5502 5500 5498 5496 5494 5493 5491 5490 5488 5487 5486 5484 5483 5483 5482 5481 5481 5480 5480 5479 5479 5478 5478 5478 5478 5478 5478 5478 5477
5533 5531 5529 5527 5524 5521 5519 5516 5513 5510 5508 5505 5502 5500 5498 5496 5494 5492 5491 5489 5487 5486 5485 5483 5481 5480 5478 5477 5476 5476 5475 5474 5473 5473 5472 5472 5472 5471 5471 5471 5471 5470 5470 5470
5526 5524 5522 5520 5518 5515 5513 5510 5507 5505 5502 5500 5497 5495 5492 5490 5488 5486 5485 5483 5482 5481 5479 5478 5476 5474 5473 5472 5471 5470 5469 5468 5467 5466 5466 5465 5465 5465 5465 5464 5464 5463 5463 5463
5520 5518 5516 5514 5512 5510 5507 5505 5502 5500 5497 5494 5492 5489 5487 5485 5483 5481 5480 5478 5477 5476 5474 5473 5471 5470 5468 5467 5465 5464 5463 5462 5461 5460 5460 5459 5458 5458 5458 5458 5458 5457 5457 5457
5514 5512 5510 5508 5506 5504 5502 5499 5497 5495 5492 5489 5487 5485 5482 5480 5478 5476 5475 5474 5473 5471 5470 5469 5467 5465 5464 5462 5461 5459 5458 5457 5456 5455 5454 5453 5453 5452 5452 5452 5452 5452 5452 5451
5508 5506 5504 5502 5500 5498 5496 5494 5492 5489 5487 5485 5482 5480 5478 5475 5474 5472 5471 5470 5469 5468 5466 5465 5463 5461 5460 5458 5456 5455 5453 5452 5451 5450 5449 5449 5448 5448 5448 5447 5447 5447 5446 5446
5502 5501 5499 5497 5495 5493 5491 5489 5487 5484 5482 5480 5478 5476 5473 5471 5470 5468 5467 5466 5465 5464 5462 5461 5459 5458 5456 5454 5453 5451 5449 5448 5447 5446 5445 5444 5444 5443 5443 5443 5442 5442 5441 5441
5497 5495 5493 5492 5490 5488 5486 5484 5482 5480 5478 5476 5473 5471 5469 5467 5466 5465 5463 5462 5461 5460 5459 5457 5456 5454 5452 5451 5449 5447 5446 5444 5443 5442 5441 5441 5440 5439 5439 5438 5438 5438 5437 5437
5492 5490 5489 5487 5485 5483 5482 5480 5478 5476 5474 5471 5469 5467 5465 5463 5462 5461 5460 5459 5458 5457 5455 5453 5452 5450 5449 5447 5445 5444 5442 5441 5440 5439 5438 5437 5436 5436 5435 5435 5434 5434 5433 5433
5487 5486 5484 5483 5481 5479 5478 5476 5474 5472 5469 5467 5465 5463 5461 5459 5458 5457 5456 5455 5454 5453 5452 5450 5448 5447 5445 5443 5442 5440 5439 5437 5436 5435 5434 5434 5433 5432 5432 5431 5431 5431 5430 5430
5482 5481 5480 5478 5477 5475 5473 5472 5470 5468 5465 5463 5461 5459 5457 5455 5454 5453 5452 5452 5451 5449 5448 5446 5445 5443 5441 5440 5438 5436 5435 5434 5433 5432 5431 5430 5429 5429 5428 5428 5428 5427 5427 5427
5477 5476 5475 5474 5472 5471 5469 5467 5465 5463 5461 5459 5457 5456 5454 5452 5451 5450 5449 5448 5447 5446 5444 5443 5441 5440 5438 5436 5434 5433 5431 5430 5429 5428 5427 5426 5426 5425 5425 5424 5424 5424 5424 5424
5472 5471 5470 5469 5468 5467 5465 5463 5461 5459 5457 5455 5454 5452 5450 5449 5448 5447 5446 5445 5443 5442 5441 5439 5438 5436 5434 5432 5430 5429 5427 5426 5425 5424 5423 5423 5422 5422 5421 5421 5421 5420 5420 5420
5468 5467 5466 5465 5463 5462 5460 5459 5457 5455 5453 5452 5450 5449 5447 5446 5445 5443 5442 5441 5440 5438 5437 5435 5433 5432 5430 5428 5426 5425 5423 5422 5421 5420 5419 5419 5418 5418 5418 5417 5417 5417 5417 5417
5463 5462 5461 5460 5459 5457 5456 5454 5453 5451 5449 5448 5447 5445 5444 5442 5441 5440 5439 5437 5436 5435 5433 5431 5429 5427 5426 5424 5422 5421 5419 5417 5416 5415 5415 5414 5414 5414 5414 5414 5413 5413 5413 5413
5459 5458 5457 5455 5454 5453 5452 5450 5448 5447 5445 5444 5443 5441 5440 5439 5438 5436 5435 5434 5432 5431 5429 5427 5425 5423 5421 5420 5418 5416 5415 5413 5411 5410 5410 5410 5410 5409 5410 5410 5410 5410 5410 5410
5454 5453 5452 5451 5450 5449 5447 5446 5444 5442 5441 5440 5439 5437 5436 5435 5434 5433 5431 5430 5428 5427 5425 5423 5421 5419 5418 5416 5414 5412 5410 5408 5407 5406 5405 5405 5405 5405 5405 5406 5406 5406 5406 5407